| time (UTC) | temp F | wind direction | speed knots | gust knots | rain 1hr in | rain 24hr in | rain mn in | humidity % | barometer mb |
| 20260509111548 | 41 | 311 | 0.0 | 0.0 | 0.00 | 0.00 | 0.00 | 42 | 1012.2 |
| 20260509110057 | 41 | 311 | 0.0 | 1.7 | 0.00 | 0.00 | 0.00 | 43 | 1012.0 |
| 20260509104648 | 42 | 311 | 0.0 | 1.7 | 0.00 | 0.00 | 0.00 | 40 | 1011.9 |
| 20260509103045 | 39 | 315 | 0.0 | 0.9 | 0.00 | 0.00 | 0.00 | 47 | 1011.7 |
| 20260509101545 | 39 | 315 | 0.0 | 0.0 | 0.00 | 0.00 | 0.00 | 47 | 1011.6 |
| 20260509100043 | 39 | 315 | 0.0 | 1.7 | 0.00 | 0.00 | 0.00 | 50 | 1011.5 |
| 20260509094540 | 40 | 316 | 0.9 | 1.7 | 0.00 | 0.00 | 0.00 | 46 | 1011.3 |
| 20260509093038 | 41 | 331 | 0.0 | 0.9 | 0.00 | 0.00 | 0.00 | 43 | 1011.1 |
| 20260509091536 | 41 | 331 | 0.0 | 0.9 | 0.00 | 0.00 | 0.00 | 45 | 1011.2 |
| 20260509090134 | 41 | 334 | 0.0 | 0.9 | 0.00 | 0.00 | 0.00 | 46 | 1011.2 |
| 20260509084537 | 42 | 270 | 0.0 | 3.5 | 0.00 | 0.00 | 0.00 | 45 | 1011.3 |
| 20260509083040 | 42 | 287 | 0.0 | 0.0 | 0.00 | 0.00 | 0.00 | 44 | 1011.2 |
| 20260509081541 | 43 | 287 | 0.0 | 0.0 | 0.00 | 0.00 | 0.00 | 42 | 1011.3 |
| 20260509080031 | 45 | 287 | 0.0 | 1.7 | 0.00 | 0.00 | 0.00 | 38 | 1011.4 |
| 20260509074529 | 44 | 282 | 0.0 | 0.0 | 0.00 | 0.00 | 0.00 | 39 | 1011.7 |
| 20260509073027 | 44 | 296 | 0.0 | 0.0 | 0.00 | 0.00 | 0.00 | 40 | 1011.7 |
| 20260509071628 | 44 | 292 | 0.0 | 0.9 | 0.00 | 0.00 | 0.00 | 41 | 1011.8 |
| 20260509070024 | 45 | 321 | 0.9 | 2.6 | 0.00 | 0.00 | 0.00 | 39 | 1012.0 |
| 20260509064523 | 44 | 337 | 0.0 | 0.0 | 0.00 | 0.00 | 0.00 | 42 | 1012.3 |
| 20260509063021 | 43 | 284 | 0.0 | 0.0 | 0.00 | 0.00 | 0.00 | 44 | 1012.3 |
| 20260509061519 | 41 | 284 | 0.0 | 0.9 | 0.00 | 0.00 | 0.00 | 51 | 1012.4 |
| 20260509060016 | 42 | 284 | 0.0 | 0.0 | 0.00 | 0.00 | 0.00 | 48 | 1012.6 |
| 20260509054522 | 43 | 284 | 0.0 | 0.0 | 0.00 | 0.00 | 0.00 | 46 | 1012.6 |
| 20260509053146 | 44 | 284 | 0.0 | 0.0 | 0.00 | 0.00 | 0.00 | 44 | 1012.5 |
| 20260509051513 | 44 | 284 | 0.0 | 1.7 | 0.00 | 0.00 | 0.00 | 44 | 1012.7 |
| 20260509050022 | 45 | 284 | 0.0 | 2.6 | 0.00 | 0.00 | 0.00 | 45 | 1012.7 |
| 20260509044506 | 47 | 284 | 0.0 | 2.6 | 0.00 | 0.00 | 0.00 | 42 | 1012.8 |
| 20260509043001 | 47 | 284 | 0.0 | 2.6 | 0.00 | 0.00 | 0.00 | 40 | 1012.9 |
| 20260509041600 | 47 | 284 | 0.0 | 1.7 | 0.00 | 0.00 | 0.00 | 45 | 1013.0 |
| 20260509040112 | 48 | 284 | 0.0 | 0.0 | 0.00 | 0.00 | 0.00 | 42 | 1013.1 |
| 20260509034622 | 50 | 284 | 0.0 | 0.0 | 0.00 | 0.00 | 0.00 | 37 | 1012.9 |
| 20260509033054 | 51 | 294 | 0.9 | 2.6 | 0.00 | 0.00 | 0.00 | 36 | 1013.0 |
| 20260509031554 | 50 | 330 | 0.0 | 1.7 | 0.00 | 0.00 | 0.00 | 38 | 1013.0 |
| 20260509030105 | 51 | 276 | 0.0 | 0.9 | 0.00 | 0.00 | 0.00 | 41 | 1013.0 |
| 20260509024554 | 51 | 276 | 0.0 | 0.0 | 0.00 | 0.00 | 0.00 | 36 | 1013.1 |
| 20260509023053 | 50 | 275 | 0.0 | 0.9 | 0.00 | 0.00 | 0.00 | 38 | 1013.1 |
| 20260509021553 | 50 | 275 | 0.0 | 0.0 | 0.00 | 0.00 | 0.00 | 41 | 1012.7 |
| 20260509020052 | 50 | 275 | 0.0 | 0.9 | 0.00 | 0.00 | 0.00 | 38 | 1012.5 |
| 20260509014551 | 51 | 275 | 0.0 | 2.6 | 0.00 | 0.00 | 0.00 | 38 | 1012.3 |
| 20260509013108 | 51 | 203 | 0.0 | 0.0 | 0.00 | 0.00 | 0.00 | 43 | 1012.2 |
| 20260509011600 | 53 | 203 | 0.0 | 0.0 | 0.00 | 0.00 | 0.00 | 36 | 1012.2 |
| 20260509010050 | 54 | 203 | 0.0 | 0.9 | 0.00 | 0.00 | 0.00 | 36 | 1012.2 |
| 20260509004549 | 57 | 203 | 0.0 | 0.0 | 0.00 | 0.00 | 0.00 | 30 | 1012.2 |
| 20260509003110 | 59 | 203 | 0.0 | 0.0 | 0.00 | 0.00 | 0.00 | 28 | 1012.3 |
| 20260509001549 | 60 | 293 | 0.0 | 0.0 | 0.00 | 0.00 | 0.00 | 26 | 1012.1 |
| 20260509000106 | 62 | 293 | 0.0 | 0.0 | 0.00 | 0.00 | 0.00 | 26 | 1011.8 |
| 20260508234548 | 65 | 293 | 0.0 | 0.9 | 0.00 | 0.00 | 0.00 | 23 | 1011.7 |
| 20260508233048 | 68 | 276 | 0.0 | 3.5 | 0.00 | 0.00 | 0.00 | 21 | 1011.5 |
| 20260508231550 | 70 | 136 | 0.0 | 2.6 | 0.00 | 0.00 | 0.00 | 19 | 1011.3 |
| 20260508230046 | 70 | 165 | 0.9 | 4.3 | 0.00 | 0.00 | 0.00 | 18 | 1011.1 |
| 20260508224546 | 70 | 138 | 0.9 | 7.0 | 0.00 | 0.00 | 0.00 | 18 | 1010.9 |
| 20260508223045 | 72 | 155 | 0.0 | 7.0 | 0.00 | 0.00 | 0.00 | 17 | 1011.0 |
| 20260508221544 | 73 | 141 | 2.6 | 9.6 | 0.00 | 0.00 | 0.00 | 15 | 1010.6 |
| 20260508220044 | 73 | 159 | 2.6 | 8.7 | 0.00 | 0.00 | 0.00 | 15 | 1010.3 |
| 20260508214543 | 73 | 199 | 3.5 | 8.7 | 0.00 | 0.00 | 0.00 | 14 | 1010.2 |
| 20260508213042 | 74 | 188 | 4.3 | 9.6 | 0.00 | 0.00 | 0.00 | 14 | 1010.0 |
| 20260508211544 | 74 | 219 | 2.6 | 8.7 | 0.00 | 0.00 | 0.00 | 14 | 1009.8 |
| 20260508210041 | 75 | 224 | 1.7 | 5.2 | 0.00 | 0.00 | 0.00 | 14 | 1009.8 |
| 20260508204540 | 76 | 194 | 3.5 | 7.8 | 0.00 | 0.00 | 0.00 | 13 | 1009.9 |
| 20260508203047 | 76 | 219 | 4.3 | 10.4 | 0.00 | 0.00 | 0.00 | 12 | 1009.7 |
| 20260508201540 | 78 | 165 | 2.6 | 8.7 | 0.00 | 0.00 | 0.00 | 12 | 1009.7 |
| 20260508200046 | 79 | 180 | 3.5 | 8.7 | 0.00 | 0.00 | 0.00 | 11 | 1009.8 |
| 20260508194538 | 79 | 155 | 5.2 | 8.7 | 0.00 | 0.00 | 0.00 | 11 | 1010.0 |
| 20260508193043 | 79 | 194 | 4.3 | 10.4 | 0.00 | 0.00 | 0.00 | 11 | 1010.1 |
| 20260508191540 | 80 | 134 | 4.3 | 9.6 | 0.00 | 0.00 | 0.00 | 10 | 1010.0 |
| 20260508190043 | 80 | 163 | 2.6 | 8.7 | 0.00 | 0.00 | 0.00 | 10 | 1009.7 |
| 20260508184536 | 80 | 170 | 2.6 | 10.4 | 0.00 | 0.00 | 0.00 | 11 | 1009.9 |
| 20260508183032 | 80 | 190 | 2.6 | 11.3 | 0.00 | 0.00 | 0.00 | 11 | 1009.9 |
| 20260508181530 | 81 | 186 | 2.6 | 7.8 | 0.00 | 0.00 | 0.00 | 10 | 1009.9 |
| 20260508180028 | 80 | 188 | 2.6 | 8.7 | 0.00 | 0.00 | 0.00 | 10 | 1010.2 |
| 20260508174540 | 81 | 175 | 3.5 | 7.8 | 0.00 | 0.00 | 0.00 | 10 | 1010.4 |
| 20260508173025 | 81 | 175 | 3.5 | 8.7 | 0.00 | 0.00 | 0.00 | 9 | 1010.5 |
| 20260508171523 | 80 | 154 | 2.6 | 7.0 | 0.00 | 0.00 | 0.00 | 10 | 1010.7 |
| 20260508170020 | 80 | 135 | 0.9 | 2.6 | 0.00 | 0.00 | 0.00 | 9 | 1011.0 |
| 20260508164515 | 80 | 149 | 0.0 | 2.6 | 0.00 | 0.00 | 0.00 | 9 | 1011.3 |
| 20260508163030 | 79 | 84 | 0.0 | 0.9 | 0.00 | 0.00 | 0.00 | 9 | 1011.8 |
| 20260508161508 | 78 | 279 | 0.0 | 1.7 | 0.00 | 0.00 | 0.00 | 9 | 1012.0 |
| 20260508160004 | 77 | 180 | 0.0 | 0.9 | 0.00 | 0.00 | 0.00 | 10 | 1012.3 |
| 20260508154600 | 77 | 278 | 0.0 | 0.9 | 0.00 | 0.00 | 0.00 | 11 | 1012.4 |
| 20260508153057 | 74 | 65 | 0.0 | 1.7 | 0.00 | 0.00 | 0.00 | 12 | 1012.6 |
| 20260508151550 | 73 | 219 | 0.0 | 0.0 | 0.00 | 0.00 | 0.00 | 12 | 1013.1 |
| 20260508150046 | 72 | 284 | 0.0 | 0.9 | 0.00 | 0.00 | 0.00 | 13 | 1013.4 |
| 20260508144543 | 71 | 240 | 0.0 | 0.9 | 0.00 | 0.00 | 0.00 | 13 | 1013.7 |
| 20260508143039 | 69 | 191 | 0.0 | 0.0 | 0.00 | 0.00 | 0.00 | 14 | 1014.2 |
| 20260508141536 | 68 | 285 | 0.0 | 0.9 | 0.00 | 0.00 | 0.00 | 15 | 1014.2 |
| 20260508140033 | 66 | 5 | 0.0 | 1.7 | 0.00 | 0.00 | 0.00 | 17 | 1014.5 |
| 20260508134533 | 64 | 19 | 0.0 | 1.7 | 0.00 | 0.00 | 0.00 | 18 | 1014.7 |
| 20260508133023 | 62 | 34 | 0.0 | 1.7 | 0.00 | 0.00 | 0.00 | 19 | 1014.5 |
| 20260508131519 | 58 | 340 | 0.0 | 0.9 | 0.00 | 0.00 | 0.00 | 22 | 1014.6 |
| 20260508130015 | 54 | 27 | 0.0 | 1.7 | 0.00 | 0.00 | 0.00 | 29 | 1014.7 |
| 20260508124510 | 49 | 276 | 0.0 | 0.0 | 0.00 | 0.00 | 0.00 | 33 | 1014.7 |
| 20260508123009 | 46 | 276 | 0.9 | 2.6 | 0.00 | 0.00 | 0.00 | 36 | 1014.5 |
| 20260508121504 | 47 | 276 | 0.0 | 0.0 | 0.00 | 0.00 | 0.00 | 38 | 1014.2 |
| 20260508120003 | 47 | 276 | 0.0 | 0.9 | 0.00 | 0.00 | 0.00 | 35 | 1014.2 |
| 20260508114600 | 44 | 276 | 0.0 | 2.6 | 0.00 | 0.00 | 0.00 | 37 | 1014.0 |
| 20260508113103 | 43 | 276 | 0.0 | 0.9 | 0.00 | 0.00 | 0.00 | 45 | 1013.9 |